Regional Weather Roundup
Issued by NWS

Home | Current Version | Previous Version | Graphics & Text | Print | Product List | Glossary On
Versions: 1 2 3 4 5 6 7 8 9 10 11 12 13 14 15 16 17 18 19 20 21 22 23 24 25 26 27 28 29 30 31 32 33 34 35 36 37 38 39 40 41 42 43 44 45 46 47 48 49 50
000
ASUS43 KIND 280909
RWRIN

WEATHER ROUNDUP FOR INDIANA
NATIONAL WEATHER SERVICE INDIANAPOLIS IN
400 AM EST SAT FEB 28 2015

NOTE: "FAIR" INDICATES FEW OR NO CLOUDS BELOW 12,000 FEET WITH NO
SIGNIFICANT WEATHER AND/OR OBSTRUCTIONS TO VISIBILITY.

* - STATION DOES NOT REPORT WEATHER SUCH AS PRECIPITATION OR FOG.

+ - STATION NOT QUALITY CONTROLLED BY THE NATIONAL WEATHER SERVICE.
    USE DATA WITH CAUTION...ESPECIALLY DEWPOINT AND RELATIVE
    HUMIDITY OBSERVATIONS.

INZ001>003-010>013-019-020-281000-
NORTHWEST INDIANA

CITY           SKY/WX    TMP DP  RH WIND       PRES   REMARKS
GARY /AIRPORT/ PTCLDY    -4 -11  70 CALM      30.69F
KNOX *+          N/A     -6 -18  54 SE3       30.68S
LA PORTE +     PTCLDY    -9 -14  77 CALM      30.68S
MICHIGAN CITY+ PTCLDY    -6 -15  65 CALM      30.68F
MONTICELLO +   PTCLDY    -2  -5  86 CALM      30.67F
RENSSELAER +   PTCLDY     1  -2  85 E5        30.68F WCI  -8
VALPARAISO     PTCLDY    -9 -13  83 CALM      30.67F

$$

LMZ046-743>745-281000-
SOUTHERN LAKE MICHIGAN

STATION/POSITION TIME  TEMP WIND        PRES
                       AIR  DIR/SP/G
                 (UTC) (F)  (DEG/KT/KT) (MB)
MICHIGAN CITY    0900    2  150/  4/  5   N/A

$$

INZ004-005-014>016-021>024-281000-
NORTH CENTRAL INDIANA

CITY           SKY/WX    TMP DP  RH WIND       PRES   REMARKS
GOSHEN         PTCLDY    -9 -16  71 CALM      30.67S HAZE
LOGANSPORT +   PTCLDY     0  -4  85 CALM      30.68F
PERU/GRISSOM   PTCLDY     1  -4  80 CALM      30.66S
ROCHESTER +    PTCLDY    -2  -8  78 CALM      30.68S
SOUTH BEND     PTCLDY    -4 -11  72 CALM      30.67F
WARSAW +       MOCLDY    -4  -8  84 CALM      30.67S

$$

INZ006>009-017-018-025>027-281000-
NORTHEAST INDIANA

CITY           SKY/WX    TMP DP  RH WIND       PRES   REMARKS
ANGOLA *+      CLEAR     -9 -15  77 CALM      30.65S
AUBURN +       MOCLDY     0  -6  78 CALM      30.67S
FORT WAYNE     MOCLDY     0  -5  79 CALM      30.68S
HUNTINGTON +   PTCLDY    -1  -8  75 CALM      30.67S

$$

INZ028-029-035-036-043>045-051>053-281000-
WEST CENTRAL INDIANA

CITY           SKY/WX    TMP DP  RH WIND       PRES   REMARKS
CRAWFORDSVL +  PTCLDY    -3 -11  70 NE3       30.66S
GREENCASTLE +  PTCLDY     5  -6  61 E5        30.65F WCI  -4
LAFAYETTE      PTCLDY     1  -4  79 CALM      30.68F
TERRE HAUTE    MOCLDY     7  -1  70 CALM      30.67S

$$

INZ030>032-037>040-046>048-054>057-064-065-281000-
CENTRAL INDIANA

CITY           SKY/WX    TMP DP  RH WIND       PRES   REMARKS
CP ATTERBURY + PTCLDY     3  -2  78 CALM      30.68R
FRANKFORT +    PTCLDY    -4  -9  80 E3        30.67S
GREENWOOD *+   PTCLDY     9  -2  61 E3        30.66F
INDIANAPOLIS   MOCLDY     7  -1  70 NE7       30.65S WCI  -5
-EAGLE CREEK   MOCLDY     6  -1  73 CALM      30.65F
KOKOMO *+      PTCLDY    -2  -6  84 CALM      30.67F
MARION +       PTCLDY    -1  -6  82 CALM      30.68S
MT COMFORT *+  PTCLDY     0  -9  65 NE3       30.66S
SHELBYVILLE    PTCLDY     3  -5  69 NE5       30.66S WCI  -6
ZIONSVILLE +   PTCLDY     1  -6  72 CALM      30.66S

$$

INZ033-034-041-042-049-050-058-059-281000-
EAST CENTRAL INDIANA

CITY           SKY/WX    TMP DP  RH WIND       PRES   REMARKS
MUNCIE         PTCLDY    -5  -8  87 SE3       30.67R

$$

INZ060-061-067>069-081>083-085>088-281000-
SOUTHWEST INDIANA

CITY           SKY/WX    TMP DP  RH WIND       PRES   REMARKS
EVANSVILLE     MOCLDY    19   7  59 NE7       30.63F WCI  10
HUNTINGBURG *+ MOCLDY    18   5  57 NE7       30.64S WCI   8
WASHINGTON +   CLOUDY    13   3  62 CALM      30.66R

$$

INZ062-063-066-070>080-084-089>092-281000-
SOUTH CENTRAL AND SOUTHEAST INDIANA

CITY           SKY/WX    TMP DP  RH WIND       PRES   REMARKS
BLOOMINGTON    PTCLDY    10   0  63 E5        30.63F WCI   2
NORTH VERNON + CLOUDY    10   0  61 NE5       30.66S WCI   2
SEYMOUR +      MOCLDY     9   0  66 N3        30.67S

$$



USA.gov is the U.S. government's official web portal to all federal, state and local government web resources and services.